TimeAKDT,TemperatureF,Dew PointF,Humidity,Sea Level PressureIn,VisibilityMPH,Wind Direction,Wind SpeedMPH,Gust SpeedMPH,PrecipitationIn,Events,Conditions,WindDirDegrees,DateUTC
12:53 AM,27.0,24.1,89,30.15,8.0,Calm,Calm,-,N/A,Snow,Light Snow,0,2013-04-01 08:53:00
1:53 AM,26.6,19.9,76,30.15,8.0,Calm,Calm,-,N/A,Snow,Light Snow,0,2013-04-01 09:53:00
2:53 AM,24.1,21.0,88,30.14,6.0,ENE,3.5,-,N/A,Snow,Light Snow,60,2013-04-01 10:53:00
3:53 AM,23.0,19.0,85,30.13,6.0,Calm,Calm,-,N/A,Snow,Light Snow,0,2013-04-01 11:53:00
4:53 AM,21.9,19.9,92,30.13,6.0,Calm,Calm,-,N/A,Snow,Light Snow,0,2013-04-01 12:53:00
5:53 AM,21.9,19.0,89,30.12,6.0,Calm,Calm,-,N/A,Snow,Light Snow,0,2013-04-01 13:53:00
6:53 AM,21.9,19.0,89,30.12,7.0,ESE,3.5,-,N/A,Snow,Light Snow,120,2013-04-01 14:53:00
7:15 AM,23.0,19.9,88,30.09,2.0,Calm,Calm,-,N/A,Snow,Light Snow,0,2013-04-01 15:15:00
7:25 AM,21.9,19.9,92,30.09,1.5,Calm,Calm,-,N/A,Snow,Light Snow,0,2013-04-01 15:25:00
7:39 AM,21.9,19.0,89,30.08,0.5,Calm,Calm,-,N/A,Fog-Snow,Light Snow,0,2013-04-01 15:39:00
7:53 AM,24.1,21.0,88,30.12,0.5,Calm,Calm,-,N/A,Fog-Snow,Light Snow,0,2013-04-01 15:53:00
8:53 AM,23.0,21.0,92,30.12,1.0,NNE,3.5,-,N/A,Snow,Light Snow,20,2013-04-01 16:53:00
9:04 AM,24.1,21.0,88,30.08,7.0,Calm,Calm,-,N/A,Snow,Light Snow,0,2013-04-01 17:04:00
9:53 AM,27.0,26.1,96,30.11,10.0,Calm,Calm,-,N/A,Snow,Light Snow,0,2013-04-01 17:53:00
10:53 AM,30.0,26.1,85,30.10,10.0,Calm,Calm,-,N/A,,Mostly Cloudy,0,2013-04-01 18:53:00
11:53 AM,35.1,25.0,67,30.09,10.0,Calm,Calm,-,N/A,,Mostly Cloudy,0,2013-04-01 19:53:00
12:53 PM,35.1,24.1,64,30.09,10.0,Calm,Calm,-,N/A,,Mostly Cloudy,0,2013-04-01 20:53:00
1:53 PM,37.0,21.9,54,30.05,10.0,Calm,Calm,-,N/A,,Mostly Cloudy,0,2013-04-01 21:53:00
2:53 PM,37.9,21.0,51,30.07,10.0,Calm,Calm,-,N/A,,Mostly Cloudy,0,2013-04-01 22:53:00
3:53 PM,37.9,21.0,51,30.06,10.0,Calm,Calm,-,N/A,,Mostly Cloudy,0,2013-04-01 23:53:00
4:53 PM,36.0,23.0,59,30.07,10.0,NE,6.9,-,N/A,,Mostly Cloudy,40,2013-04-02 00:53:00
5:53 PM,36.0,23.0,59,30.07,10.0,NE,9.2,-,N/A,,Mostly Cloudy,40,2013-04-02 01:53:00
6:53 PM,36.0,21.9,57,30.07,10.0,NNE,13.8,-,N/A,,Mostly Cloudy,30,2013-04-02 02:53:00
7:53 PM,32.0,19.9,61,30.07,10.0,NE,8.1,-,N/A,,Mostly Cloudy,50,2013-04-02 03:53:00
8:53 PM,30.9,18.0,59,30.08,10.0,North,8.1,-,N/A,,Mostly Cloudy,10,2013-04-02 04:53:00
9:53 PM,28.9,16.0,58,30.09,10.0,North,5.8,-,N/A,,Scattered Clouds,350,2013-04-02 05:53:00
10:53 PM,28.0,15.1,58,30.10,10.0,North,6.9,-,N/A,,Scattered Clouds,350,2013-04-02 06:53:00
11:53 PM,27.0,14.0,58,30.10,10.0,North,8.1,-,N/A,,Scattered Clouds,360,2013-04-02 07:53:00